Theta_e
317 312 313 307 296 293 289 292 295 297 296 298 300 298 296 298 297 294 313 322 333 338 345 348 351 353 354 354 354 353 352 351 350 350 349 349 348 347 347 347 347 344 341 340 338 337 334 332 333
312 315 308 299 291 287 288 292 295 297 299 300 299 299 297 296 306 310 315 322 336 339 344 346 347 352 354 354 353 352 352 352 350 349 349 347 345 344 344 345 345 343 340 337 334 333 329 329 330
313 312 302 294 288 286 288 292 293 297 298 298 297 299 298 300 307 310 314 325 335 338 343 345 346 352 353 353 352 351 351 351 351 350 348 345 342 341 341 339 341 340 336 333 331 328 326 324 325
308 305 298 291 288 293 291 293 296 296 298 299 298 299 300 305 307 314 322 327 334 337 342 343 347 351 352 351 351 351 351 351 351 351 348 342 341 339 336 335 338 338 333 331 327 325 323 321 321
304 297 291 289 289 292 293 297 297 296 296 297 298 297 297 307 314 316 321 322 331 333 337 342 346 349 350 350 350 350 350 351 351 349 347 344 341 336 333 335 338 335 333 328 326 323 322 320 319
299 295 288 287 290 293 295 297 296 295 296 297 296 300 297 306 310 316 320 319 326 332 335 341 340 343 346 348 348 348 349 350 350 348 347 344 340 337 332 333 334 333 331 326 325 322 320 318 318
297 292 288 289 289 293 295 297 294 294 293 296 298 295 299 302 307 315 319 319 320 328 334 338 341 340 339 342 343 345 347 348 347 347 345 343 340 338 333 332 332 331 328 327 324 321 318 317 315
298 294 290 289 289 291 297 298 297 295 296 299 300 295 296 302 308 311 316 317 318 322 331 334 337 339 341 341 337 339 341 343 343 343 339 336 334 333 332 329 331 329 326 326 323 321 318 315 312
299 290 287 289 290 292 296 295 297 297 295 295 299 297 300 304 308 309 309 311 314 319 324 329 334 337 339 337 336 334 336 337 337 335 332 328 328 327 325 324 327 328 327 326 323 321 317 312 308
294 288 290 294 293 293 295 294 295 294 296 294 295 299 303 305 307 307 308 308 310 315 320 325 329 333 334 339 336 335 337 337 333 333 329 327 326 323 323 319 324 327 327 327 323 320 316 305 294
296 291 295 297 297 297 296 295 296 293 294 296 296 296 298 303 303 304 305 307 309 312 317 323 327 328 331 335 334 335 331 329 328 328 325 326 324 320 318 315 316 315 318 315 316 312 304 300 296
293 298 298 300 299 297 295 298 296 296 298 301 299 298 298 299 302 302 302 303 306 309 315 320 325 327 328 330 330 332 334 331 327 324 323 323 321 317 314 313 312 311 310 308 306 303 302 296 295
293 294 297 299 298 296 297 296 294 296 300 300 299 299 297 296 296 297 298 300 301 304 310 315 322 325 327 326 325 328 329 329 327 323 321 323 321 317 312 311 310 309 307 305 303 301 298 294 294
294 295 295 297 297 296 295 293 294 297 296 298 298 296 297 297 297 297 297 298 298 300 302 311 320 324 324 324 323 326 325 324 324 323 324 324 323 319 314 309 309 307 306 304 303 300 296 293 293
295 292 294 295 294 294 295 291 293 298 297 297 296 295 296 296 296 295 296 296 297 299 302 308 316 319 321 321 321 321 323 323 322 321 321 323 322 317 311 308 307 307 306 304 301 298 294 292 292
290 289 286 292 293 294 293 288 295 297 294 295 293 293 294 294 294 294 295 295 296 297 299 304 314 316 317 318 319 320 319 321 323 322 321 322 320 317 311 308 307 308 305 303 299 295 293 292 290
287 283 285 290 295 293 290 288 294 298 294 295 291 291 292 291 292 293 293 294 294 296 297 298 300 303 312 315 316 316 315 316 319 320 320 320 318 315 310 308 307 305 304 300 297 293 293 291 290
284 284 285 287 292 292 290 289 293 295 295 292 290 289 290 290 290 292 292 293 293 294 295 296 298 299 302 308 310 311 311 312 315 316 317 318 319 316 313 311 309 306 303 297 294 293 290 290 290
287 285 285 288 293 289 289 289 289 291 290 289 289 288 289 289 291 292 292 291 291 292 293 294 294 295 298 298 301 304 305 306 303 304 306 311 313 314 311 308 306 304 302 299 295 292 291 289 288
288 286 285 289 292 289 288 287 288 289 288 289 288 287 288 288 289 290 290 290 290 290 291 292 293 293 294 296 296 298 298 298 297 298 298 300 304 307 309 307 304 301 300 297 295 293 289 289 288
288 287 286 288 288 287 284 284 285 288 289 289 288 289 289 288 288 288 288 288 289 288 289 290 291 292 292 294 294 295 294 294 294 294 294 295 298 301 302 302 302 300 298 297 295 293 292 291 288
286 290 290 287 284 281 285 279 283 286 286 287 287 286 286 287 288 288 288 287 288 287 288 289 290 291 291 292 291 290 289 289 289 291 291 293 294 294 295 297 298 297 295 295 294 294 293 291 290
288 290 288 286 283 281 282 279 282 286 284 284 285 286 286 287 287 287 287 288 288 287 286 286 288 289 290 290 290 289 288 289 288 289 288 289 291 291 291 292 292 293 295 293 292 293 291 290 292
290 287 287 284 282 277 282 281 281 283 286 285 286 285 286 285 285 286 287 287 286 286 286 286 286 286 287 288 288 287 286 286 285 285 285 286 287 288 288 289 289 290 291 291 291 290 289 289 289
287 285 279 276 276 277 283 280 283 286 287 287 284 283 284 284 284 284 284 285 285 284 285 286 285 284 285 286 286 285 285 285 284 284 283 283 283 285 286 286 287 287 288 289 289 289 288 288 287
285 285 278 270 274 277 282 279 282 285 286 286 285 284 284 283 284 284 285 284 285 285 285 284 284 284 283 284 285 285 286 285 285 283 283 283 283 283 284 284 285 286 286 287 287 288 287 287 287
286 283 286 280 274 273 280 281 285 284 282 283 282 282 282 282 283 284 285 284 285 286 285 285 284 283 283 283 285 285 286 286 285 285 283 283 283 284 284 284 284 284 284 285 285 284 284 285 285
286 288 281 279 269 270 277 279 280 280 280 282 281 281 281 283 283 283 283 284 284 284 284 284 284 283 283 282 282 283 284 285 285 285 284 284 284 283 282 283 283 283 284 283 283 282 283 283 284
284 282 283 283 277 272 270 276 284 285 283 282 282 283 282 282 283 284 283 284 284 283 282 283 284 283 283 283 282 281 282 282 283 282 282 282 282 282 282 282 281 281 282 282 281 281 281 281 282
286 284 284 277 275 280 278 279 286 287 285 285 285 285 283 282 281 281 282 282 282 282 281 281 281 281 282 282 282 281 281 281 280 280 281 281 281 282 281 281 281 281 281 280 279 279 280 280 280
Wind_Speed
6 5 2 5 6 6 2 3 1 1 1 2 1 3 2 2 3 5 3 7 8 12 11 13 16 15 14 16 15 13 12 13 13 12 12 12 12 9 8 10 12 10 8 7 6 6 7 7 7
4 2 5 3 7 4 5 4 2 3 4 3 0 2 1 0 2 2 4 7 9 11 11 11 13 16 15 16 16 15 14 13 13 12 11 12 10 7 6 7 10 9 7 5 4 5 6 6 5
3 2 5 5 4 4 4 3 3 2 2 1 1 1 1 2 2 7 6 10 9 10 11 10 12 15 15 17 16 15 14 14 14 15 13 11 10 6 6 3 4 7 5 3 3 4 4 4 4
4 5 5 5 1 4 5 5 3 2 2 1 2 1 3 0 2 6 7 9 10 8 10 12 15 15 15 15 15 15 14 13 14 16 13 12 9 7 4 1 2 6 3 2 2 3 4 4 3
5 4 5 3 4 5 2 3 3 2 0 1 0 2 3 4 5 2 6 7 10 7 7 11 15 15 16 15 14 14 13 13 13 11 14 14 12 8 4 5 6 5 4 3 3 3 3 3 3
5 4 5 1 4 5 3 3 2 2 3 2 3 3 2 2 2 3 4 7 7 9 7 10 12 12 13 14 14 14 12 12 11 12 13 15 13 8 6 5 4 4 5 4 3 3 3 2 3
6 4 3 3 3 5 3 2 3 2 1 1 2 2 3 3 7 6 7 6 7 6 7 6 9 11 11 11 11 12 12 11 12 13 14 14 12 11 9 6 5 6 6 6 5 4 3 2 3
5 5 1 3 2 3 6 8 1 2 3 3 4 3 5 5 5 5 3 4 5 6 6 7 8 8 8 9 12 11 11 11 11 11 12 11 11 12 9 4 7 7 7 7 6 4 2 2 3
3 5 1 4 2 5 5 5 6 5 3 2 3 4 4 3 5 4 3 2 3 4 7 6 9 9 10 7 8 11 13 11 11 11 13 9 5 7 9 6 6 7 7 8 7 5 4 2 1
5 4 7 5 4 3 3 1 4 4 8 5 4 5 2 4 4 6 6 7 6 7 7 8 7 9 7 7 6 7 6 6 5 6 7 4 5 5 6 7 8 8 7 8 8 7 5 3 2
4 6 4 5 5 3 4 5 4 3 6 8 11 4 2 4 7 7 8 9 10 7 4 9 9 8 9 8 5 4 3 3 3 6 5 5 4 4 4 3 2 2 5 3 4 2 2 2 1
2 7 5 5 2 4 2 5 7 5 11 8 9 5 5 5 7 9 10 8 7 8 11 9 10 10 9 5 6 5 6 5 4 5 7 5 3 4 4 4 4 3 2 4 3 2 2 3 3
4 4 4 5 8 6 2 7 6 12 14 10 9 5 8 8 10 9 9 10 9 9 9 9 9 11 9 8 5 5 5 6 5 6 6 6 6 5 4 4 4 4 4 4 3 3 2 3 3
2 3 7 7 9 5 6 3 3 9 2 10 6 14 13 13 12 12 17 13 14 13 8 6 8 8 7 7 7 5 4 4 4 4 6 8 6 4 4 4 4 4 4 4 4 4 4 4 3
2 5 8 8 3 4 6 1 7 11 6 8 8 10 11 13 15 14 12 12 13 10 11 4 5 5 7 6 5 4 4 4 4 4 6 6 6 7 6 4 4 4 4 5 3 2 1 2 2
3 2 3 4 2 1 4 8 8 8 4 9 11 8 12 14 13 13 13 12 13 13 15 14 9 5 4 4 4 3 3 3 3 3 3 5 5 6 5 5 5 5 4 4 4 3 2 3 3
2 3 5 8 3 3 3 6 9 11 2 8 9 8 10 10 14 14 14 13 14 14 15 16 15 12 8 7 5 4 5 3 2 2 3 4 5 5 5 4 4 5 4 3 3 2 3 3 3
5 4 4 5 3 1 5 9 11 11 10 5 8 8 10 12 12 11 13 12 13 14 15 16 14 16 9 6 5 5 5 5 6 5 4 2 1 4 4 3 3 3 3 3 2 3 2 2 3
3 3 6 5 7 3 5 6 8 10 10 10 9 10 11 13 10 11 13 13 14 17 18 17 18 15 11 6 4 5 4 5 8 8 10 7 5 2 3 2 3 4 5 5 4 2 5 3 2
5 6 7 6 6 0 5 8 6 12 7 8 9 9 9 9 11 12 12 14 16 15 15 16 16 15 11 8 4 4 3 4 4 7 10 13 9 6 2 1 2 2 2 3 4 3 1 2 4
5 6 5 8 3 3 2 6 2 4 7 10 10 8 8 8 9 9 12 13 13 15 14 15 14 16 14 12 8 6 5 5 8 11 9 10 12 11 9 7 4 2 0 3 3 4 5 4 3
7 5 7 2 3 4 3 5 4 3 4 6 7 7 7 7 7 9 11 13 13 10 10 13 14 15 14 14 12 14 9 7 4 5 5 8 12 12 12 11 8 6 3 3 3 3 4 2 5
8 3 5 3 3 2 3 2 6 6 3 4 5 7 7 6 7 8 9 9 8 8 8 8 11 13 12 13 12 9 9 5 4 6 10 12 11 11 13 11 9 9 6 5 5 4 4 4 5
4 3 6 5 3 1 8 7 5 6 7 7 6 5 6 7 6 6 6 6 7 7 7 8 11 12 10 11 11 11 11 8 8 8 8 6 5 7 11 11 9 7 7 6 5 5 5 5 5
4 6 3 4 2 6 4 3 4 7 4 16 15 8 7 6 6 6 6 6 6 7 7 7 9 11 8 9 10 9 8 8 9 8 6 8 7 6 10 10 9 7 7 7 6 5 5 5 4
6 8 7 7 4 4 4 6 3 4 9 12 10 9 7 7 6 6 6 6 6 6 7 8 8 8 8 8 8 7 8 6 5 5 6 5 6 6 8 9 9 10 10 8 7 6 4 4 5
4 4 2 6 2 3 5 2 2 4 6 7 9 7 7 7 6 7 6 6 5 5 6 6 6 6 6 6 6 6 6 6 6 7 5 4 5 7 8 9 10 9 9 10 10 6 7 7 5
4 5 4 3 2 6 4 5 5 10 11 8 7 8 8 7 7 6 5 5 5 5 4 5 5 6 5 7 6 5 6 6 5 5 6 6 6 5 6 7 7 9 9 8 7 8 10 8 6
1 1 3 3 5 6 2 6 0 13 15 14 11 11 8 8 8 7 6 5 5 4 4 3 3 2 1 2 2 4 5 7 7 6 6 6 7 8 9 9 9 9 9 8 6 7 8 7 10
1 5 5 6 5 5 1 9 5 13 16 14 11 9 8 7 7 7 7 6 6 5 4 4 4 4 5 4 4 5 4 4 5 6 7 7 8 10 10 11 12 13 12 9 7 9 9 10 10
Wind_Direction
326 332 81 42 56 63 292 280 147 84 6 218 197 132 187 192 163 212 300 170 138 148 165 168 169 166 160 153 150 149 150 150 148 145 144 131 99 86 88 112 111 109 102 92 77 83 74 71 71
346 12 41 80 80 63 287 268 163 207 210 182 70 104 49 221 194 158 109 183 156 152 162 171 169 165 161 156 156 157 158 160 160 162 159 128 124 114 98 95 122 125 105 80 85 79 74 72 61
329 54 78 88 106 162 188 235 222 274 211 159 53 202 200 218 339 177 230 151 140 153 162 167 167 170 165 159 160 163 165 168 168 166 164 131 139 163 129 103 131 123 116 130 96 82 74 64 64
19 11 33 77 237 254 188 212 217 144 329 6 136 338 306 85 191 201 138 137 142 155 165 165 168 172 171 168 167 168 172 178 177 177 155 158 161 159 153 320 268 121 140 161 110 76 73 56 52
36 55 47 34 284 278 283 185 152 36 13 282 244 254 273 7 6 84 146 139 153 161 166 168 171 173 171 171 173 173 178 186 183 183 146 157 166 164 192 226 208 190 183 179 125 101 79 74 66
40 90 52 329 285 290 294 293 84 42 8 27 326 316 273 288 166 190 184 165 163 161 169 172 174 173 172 174 175 177 181 191 189 166 153 157 169 171 174 187 187 181 185 182 147 135 119 96 74
103 79 195 226 260 310 251 321 113 165 119 197 190 293 290 259 221 180 197 171 164 167 158 170 180 180 175 177 176 178 179 179 174 169 165 168 165 139 158 192 188 187 193 176 168 157 148 115 68
103 92 302 264 292 293 336 332 350 347 290 314 168 251 274 251 173 156 188 191 176 174 176 172 176 183 185 182 182 184 186 185 183 177 168 166 167 141 151 183 195 199 201 179 173 173 160 107 59
87 60 256 249 18 297 326 6 327 293 330 351 266 182 265 125 118 144 155 219 224 210 193 184 180 184 185 179 190 188 188 191 190 172 173 164 153 143 149 156 206 205 212 186 184 184 172 119 16
93 121 226 211 174 271 278 253 304 355 320 293 254 300 67 133 163 190 210 220 214 219 210 191 185 184 178 189 183 192 190 187 179 169 170 152 158 155 157 158 203 205 204 182 192 197 161 89 39
164 191 217 254 211 209 277 288 197 163 288 246 273 256 212 213 229 231 240 226 222 217 199 197 191 182 177 192 184 187 170 154 162 171 168 154 157 157 149 155 206 205 181 163 178 182 119 190 229
163 246 228 272 323 326 267 311 314 215 247 255 276 260 269 243 259 253 263 259 231 212 218 200 189 180 188 175 181 188 191 179 181 177 173 155 158 173 166 167 179 182 176 171 156 163 194 246 276
214 268 264 268 283 261 290 249 247 264 267 289 307 322 5 24 18 14 351 340 305 253 250 213 184 186 182 175 166 172 190 192 181 173 177 171 173 177 161 177 167 174 167 171 182 192 220 257 268
194 293 275 273 264 256 251 297 152 275 269 315 331 52 49 44 22 17 14 4 358 338 281 220 211 196 167 174 167 172 161 174 171 173 182 186 173 163 170 170 177 176 181 178 180 190 210 235 233
338 323 317 272 263 227 171 138 232 253 319 296 28 79 63 44 31 25 4 2 354 353 349 310 189 169 166 165 152 153 169 151 165 177 178 188 173 170 168 172 176 186 185 181 165 189 188 258 273
331 28 337 284 150 142 106 257 272 274 276 285 81 63 56 46 40 20 6 8 8 11 25 30 25 58 108 122 122 131 142 149 153 164 185 185 172 164 158 172 193 180 175 174 166 167 202 239 247
343 232 211 307 252 124 172 245 261 292 21 300 101 70 61 46 35 23 13 9 10 21 25 34 37 35 35 51 62 66 78 89 102 140 158 184 188 175 173 187 195 164 174 177 175 183 175 196 220
205 218 249 245 273 106 245 250 270 290 304 65 99 79 66 54 34 25 20 20 23 29 32 34 36 29 30 44 44 47 49 32 39 29 13 322 201 194 177 182 189 146 146 165 167 180 199 193 206
194 210 238 259 264 270 263 277 3 5 35 89 81 78 70 60 46 33 29 28 32 34 37 33 36 20 26 17 24 35 34 26 42 45 34 24 3 345 154 180 183 172 189 201 187 155 187 236 143
234 240 247 260 244 256 288 306 42 35 46 69 89 75 70 71 48 37 33 34 37 37 37 38 39 35 32 29 5 34 52 38 29 23 30 21 10 7 351 226 246 213 178 188 184 173 185 236 179
221 213 230 231 332 287 350 295 62 46 68 76 63 72 64 64 62 44 42 39 39 36 31 38 38 42 38 33 32 30 34 27 23 13 13 16 22 22 15 4 358 354 239 243 223 192 191 228 232
268 210 214 192 81 238 52 279 207 165 84 69 79 61 57 54 49 49 46 44 43 32 34 39 40 39 39 38 48 51 57 53 4 1 359 11 20 30 28 21 11 358 347 280 258 228 221 165 236
220 151 152 159 169 42 308 116 269 135 166 130 86 82 74 52 54 56 54 47 40 35 32 31 46 48 42 44 49 59 59 40 15 26 20 11 13 23 22 18 14 10 357 336 318 288 226 214 245
133 56 36 46 99 280 211 161 251 193 188 146 127 114 103 98 82 67 53 52 48 32 43 40 43 41 37 47 46 50 48 41 40 29 26 16 3 6 13 5 3 359 358 350 324 298 278 263 249
99 80 319 341 351 232 148 142 257 316 142 152 144 137 126 119 106 94 79 68 60 51 46 58 51 43 31 41 48 47 47 42 40 30 26 16 10 5 2 1 357 355 342 342 336 320 284 268 243
177 159 164 208 213 248 299 244 275 46 97 119 129 136 134 128 123 114 106 94 79 67 63 56 47 44 31 35 33 35 40 41 35 20 16 20 9 349 348 350 350 348 348 349 346 338 319 288 262
182 177 190 100 36 47 228 77 94 105 115 130 140 145 156 156 151 131 118 106 105 96 72 63 61 55 39 34 33 27 30 33 22 7 358 352 346 346 344 339 339 336 336 343 343 340 325 322 293
150 162 79 10 224 252 279 252 203 190 179 174 172 177 185 167 149 140 133 120 78 77 72 61 51 47 36 21 22 16 3 7 4 354 343 332 324 319 321 324 321 318 320 323 331 327 322 320 304
52 218 81 130 142 190 259 255 11 183 177 179 197 200 180 171 165 154 135 127 125 127 142 150 137 156 191 223 5 1 326 340 337 335 328 315 310 313 319 321 316 307 301 299 289 290 292 298 307
300 212 164 154 244 243 168 261 333 167 174 183 198 189 178 173 165 152 158 170 178 186 187 196 202 211 228 223 216 232 256 273 284 279 276 292 305 311 310 305 304 305 305 300 273 280 278 275 281